Home > Weather > Richterswil > Past weeks

Flag for Switzerland Past Weather in Richterswil, Zurich, Switzerland — Yesterday and Last 2 Weeks

Now
54 °F

Cool.


Feels Like: 54 °F
Forecast: 54 / 67 °F
Wind: 2 mph from West

Location: Zuerich-Fluntern

Current Time: Jun 1, 2016 at 9:28:03 AM

Latest Report: Jun 1, 2016 at 8:00 AM


Visibility: N/A

Pressure: 29.98 "Hg

Humidity: 92%

Dew Point: 52 °F

Location of RichterswilLocation

Past Weather in Richterswil — Graph

°F

Richterswil Temperature Yesterday

Maximum temperature yesterday: 66 °F (at 5:00 PM)
Minimum temperature yesterday: 53 °F (at 6:00 AM)
Average temperature yesterday: 58 °F

High & Low Weather Summary for the Past Weeks

 TemperatureHumidityPressure
High79 °F (May 27, 6:00 PM)96% (May 24, 5:00 AM)30.21 "Hg (May 24, 5:00 AM)
Low42 °F (May 23, 10:00 AM)28% (May 21, 4:00 PM)29.70 "Hg (May 22, 4:00 PM)
Average57 °F75%29.94 "Hg
* Reported May 17 8:00 AM — Jun 1 8:00 AM, Richterswil, Weather by CustomWeather, © 2016

Note: Actual official high and low records may vary slightly from our data, if they occured in-between our weather recording intervals... More about our weather records

Advertising

Richterswil Weather History for the Previous 24 Hours

Scroll right to see more
 ConditionsComfort  
Time TempWeatherWind HumidityBarometerVisibility
8:00 AM
Wed, Jun 1
54 °FCool.2 mph92%29.98 "HgN/A
7:00 AM54 °FCool.1 mph94%29.97 "HgN/A
6:00 AM54 °FCool.2 mph91%29.97 "HgN/A
5:00 AM54 °FCool.1 mph92%29.96 "HgN/A
4:00 AM54 °FCool.2 mph90%29.96 "HgN/A
3:00 AM55 °FCool.2 mph90%29.97 "HgN/A
2:00 AM56 °FCool.5 mph86%29.96 "HgN/A
1:00 AM56 °FCool.2 mph83%29.96 "HgN/A
12:00 AM56 °FCool.5 mph84%29.96 "HgN/A
11:00 PM
Tue, May 31
57 °FCool.3 mph78%29.96 "HgN/A
10:00 PM57 °FCool.3 mph80%29.94 "HgN/A
9:00 PM58 °FCool.7 mph80%29.92 "HgN/A
8:00 PM60 °FOvercast.5 mph67%29.89 "HgN/A
7:00 PM62 °FCool.5 mph61%29.87 "HgN/A
6:00 PM62 °FCool.9 mph60%29.86 "HgN/A
5:00 PM66 °FMild.8 mph56%29.84 "HgN/A
3:00 PM62 °FCool.10 mph61%29.86 "HgN/A
2:00 PM62 °FOvercast.6 mph63%29.86 "HgN/A
1:00 PM62 °FCool.7 mph62%29.87 "HgN/A
12:00 PM61 °FCool.9 mph62%29.87 "HgN/A
11:00 AM62 °FCool.7 mph62%29.85 "HgN/A
10:00 AM61 °FCool.12 mph65%29.85 "HgN/A
9:00 AM59 °FCool.8 mph69%29.86 "HgN/A
Weather by CustomWeather, © 2016

See weather overviewHow to use our weather pages